Weather History for Thomson, GA

Change the Weather History Date:

Friday, January 24, 2014

  Actual Average (KDBN) Record (KDBN)
Temperature  
Mean Temperature 23 °F -  
Max Temperature 32 °F 57 °F 76 °F (1937)
Min Temperature 14 °F 34 °F 9 °F (1963)
Degree Days  
Heating Degree Days 42    
Moisture  
Dew Point 4 °F    
Average Humidity 45    
Maximum Humidity 86    
Minimum Humidity 26    
Precipitation  
Precipitation 0.00 in - - ()
Sea Level Pressure  
Sea Level Pressure 30.52 in    
Wind  
Wind Speed 7 mph (NNW)    
Max Wind Speed 15 mph    
Max Gust Speed 22 mph    
Visibility 10 miles    
Events      
Averages and records for this station are not official NWS values.
T = Trace of Precipitation, MM = Missing Value Source: NWS Daily Summary

Daily Weather History Graph

Daily Weather History Graph

Search for Another Location

Airport:

Trip Planner

Search our weather history database for the weather conditions in past years. The results will help you decide how hot, cold, wet, or windy it might be!

Date:

Astronomy

Jan. 24, 2014 Rise Set
Actual Time 7:31 AM EST 5:53 PM EST
Civil Twilight 7:04 AM EST 6:20 PM EST
Nautical Twilight 6:34 AM EST 6:50 PM EST
Astronomical Twilight 6:04 AM EST 7:19 PM EST
Moon 1:01 AM EST (1/24) 12:08 PM EST (1/24)
Length of Visible Light 11h 15m
Length of Day
10h 22m
Last Quarter, 45% of the Moon is Illuminated
Jan 24
Last Quarter
Jan 30
New
Feb 6
First Quarter
Feb 14
Full
Feb 22
Last Quarter

Hourly Weather History & Observations

Time (EST) Temp. Windchill Dew Point Humidity Pressure Visibility Wind Dir Wind Speed Gust Speed Precip Events Conditions
12:15 AM 28.4 °F 19.1 °F 9.1 °F 44% 30.49 in 10.0 mi NW 10.4 mph 18.4 mph N/A   Scattered Clouds
12:35 AM 28.4 °F 20.4 °F 9.0 °F 44% 30.49 in 10.0 mi WNW 8.1 mph - N/A   Scattered Clouds
12:55 AM 28.4 °F 18.5 °F 7.7 °F 42% 30.49 in 10.0 mi NW 11.5 mph 18.4 mph N/A   Scattered Clouds
1:15 AM 28.4 °F 18.5 °F 5.7 °F 38% 30.50 in 10.0 mi NW 11.5 mph 21.9 mph N/A   Mostly Cloudy
1:35 AM 28.0 °F 17.5 °F 5.4 °F 38% 30.51 in 10.0 mi NW 12.7 mph 20.7 mph N/A   Overcast
1:55 AM 27.5 °F 16.8 °F 4.3 °F 37% 30.51 in 10.0 mi WNW 12.7 mph 17.3 mph N/A   Overcast
2:15 AM 27.3 °F 15.6 °F 4.5 °F 38% 30.53 in 10.0 mi WNW 15.0 mph 20.7 mph N/A   Mostly Cloudy
2:35 AM 27.0 °F 18.0 °F 4.8 °F 39% 30.54 in 10.0 mi NW 9.2 mph - N/A   Mostly Cloudy
2:55 AM 26.6 °F 16.8 °F 4.5 °F 39% 30.55 in 10.0 mi WNW 10.4 mph - N/A   Mostly Cloudy
3:15 AM 26.2 °F 19.6 °F 4.6 °F 40% 30.55 in 10.0 mi WNW 5.8 mph - N/A   Scattered Clouds
3:35 AM 25.7 °F 17.1 °F 4.1 °F 40% 30.57 in 10.0 mi WNW 8.1 mph - N/A   Scattered Clouds
3:55 AM 25.3 °F 16.0 °F 3.6 °F 39% 30.57 in 10.0 mi NW 9.2 mph 17.3 mph N/A   Clear
4:15 AM 24.6 °F 14.4 °F 3.2 °F 40% 30.58 in 10.0 mi NW 10.4 mph 18.4 mph N/A   Clear
4:35 AM 23.5 °F 13.7 °F 3.2 °F 42% 30.59 in 10.0 mi WNW 9.2 mph - N/A   Clear
4:55 AM 22.6 °F 12.6 °F 3.4 °F 44% 30.59 in 10.0 mi NW 9.2 mph 16.1 mph N/A   Clear
5:15 AM 21.9 °F 11.7 °F 2.8 °F 44% 30.60 in 10.0 mi NW 9.2 mph 17.3 mph N/A   Clear
5:35 AM 21.0 °F 10.6 °F 2.8 °F 45% 30.61 in 10.0 mi NW 9.2 mph 16.1 mph N/A   Clear
5:55 AM 20.3 °F 11.5 °F 3.6 °F 48% 30.62 in 10.0 mi NW 6.9 mph - N/A   Clear
6:15 AM 19.4 °F 11.5 °F 3.7 °F 51% 30.62 in 10.0 mi NW 5.8 mph - N/A   Clear
6:35 AM 18.9 °F 9.8 °F 3.9 °F 52% 30.62 in 10.0 mi NW 6.9 mph - N/A   Clear
6:55 AM 17.8 °F 12.5 °F 4.5 °F 56% 30.62 in 10.0 mi NW 3.5 mph - N/A   Clear
7:15 AM 17.2 °F 10.2 °F 4.5 °F 57% 30.63 in 10.0 mi NW 4.6 mph - N/A   Clear
7:35 AM 16.7 °F 9.6 °F 4.6 °F 59% 30.63 in 10.0 mi NW 4.6 mph - N/A   Clear
7:55 AM 17.4 °F 10.4 °F 4.8 °F 58% 30.64 in 10.0 mi NW 4.6 mph - N/A   Clear
8:15 AM 18.0 °F 9.8 °F 5.0 °F 57% 30.64 in 10.0 mi NNW 5.8 mph - N/A   Clear
8:35 AM 18.9 °F 12.1 °F 4.8 °F 54% 30.64 in 10.0 mi NNW 4.6 mph - N/A   Clear
8:55 AM 20.3 °F 13.8 °F 5.7 °F 53% 30.65 in 10.0 mi NNW 4.6 mph - N/A   Clear
9:15 AM 21.6 °F 12.1 °F 5.7 °F 51% 30.64 in 10.0 mi NNE 8.1 mph - N/A   Clear
9:35 AM 21.9 °F 13.4 °F 3.0 °F 44% 30.65 in 10.0 mi NNE 6.9 mph - N/A   Clear
9:55 AM 22.8 °F 12.9 °F 3.4 °F 43% 30.66 in 10.0 mi NNE 9.2 mph - N/A   Clear
10:15 AM 24.6 °F 15.8 °F 4.1 °F 41% 30.66 in 10.0 mi NE 8.1 mph - N/A   Clear
10:35 AM 25.2 °F 16.5 °F 3.2 °F 39% 30.66 in 10.0 mi North 8.1 mph - N/A   Clear
10:55 AM 25.7 °F 17.1 °F 1.9 °F 36% 30.66 in 10.0 mi NNE 8.1 mph - N/A   Clear
11:15 AM 26.6 °F 20.0 °F 2.1 °F 35% 30.65 in 10.0 mi NNE 5.8 mph - N/A   Clear
11:35 AM 27.0 °F 19.5 °F 1.6 °F 34% 30.64 in 10.0 mi North 6.9 mph - N/A   Clear
11:55 AM 27.1 °F - 1.4 °F 33% 30.63 in 10.0 mi Calm Calm - N/A   Clear
12:15 PM 27.9 °F 22.6 °F 2.7 °F 34% 30.62 in 10.0 mi ENE 4.6 mph - N/A   Clear
12:35 PM 28.0 °F - 2.7 °F 34% 30.59 in 10.0 mi Calm Calm - N/A   Clear
12:55 PM 28.9 °F 22.8 °F 1.6 °F 31% 30.58 in 10.0 mi North 5.8 mph - N/A   Clear
1:15 PM 29.5 °F - 1.9 °F 31% 30.56 in 10.0 mi Calm Calm - N/A   Clear
1:35 PM 30.4 °F 23.6 °F 1.0 °F 29% 30.54 in 10.0 mi North 6.9 mph - N/A   Clear
1:55 PM 31.1 °F - 2.5 °F 30% 30.53 in 10.0 mi Calm Calm - N/A   Clear
2:15 PM 31.6 °F 25.1 °F 1.4 °F 28% 30.52 in 10.0 mi North 6.9 mph - N/A   Clear
2:35 PM 32.0 °F 28.7 °F 1.2 °F 27% 30.51 in 10.0 mi ENE 3.5 mph - N/A   Clear
2:55 PM 31.8 °F - 1.8 °F 28% 30.49 in 10.0 mi Calm Calm - N/A   Clear
3:15 PM 32.4 °F 26.9 °F 1.8 °F 27% 30.48 in 10.0 mi NE 5.8 mph - N/A   Clear
3:35 PM 32.0 °F 27.5 °F 1.0 °F 27% 30.47 in 10.0 mi ENE 4.6 mph - N/A   Clear
3:55 PM 32.0 °F - 0.9 °F 27% 30.46 in 10.0 mi Calm Calm - N/A   Clear
4:15 PM 32.0 °F 28.7 °F 0.1 °F 26% 30.46 in 10.0 mi East 3.5 mph - N/A   Clear
4:35 PM 32.0 °F - 0.7 °F 26% 30.46 in 10.0 mi Calm Calm - N/A   Clear
4:55 PM 32.0 °F - 1.4 °F 27% 30.46 in 10.0 mi Calm Calm - N/A   Clear
5:15 PM 32.0 °F - 1.6 °F 27% 30.45 in 10.0 mi Calm Calm - N/A   Clear
5:35 PM 30.7 °F - 1.8 °F 29% 30.45 in 10.0 mi Calm Calm - N/A   Clear
5:55 PM 28.8 °F - 1.8 °F 32% 30.45 in 10.0 mi Calm Calm - N/A   Clear
6:15 PM 27.3 °F - 2.8 °F 35% 30.45 in 10.0 mi Calm Calm - N/A   Clear
6:35 PM 26.1 °F - 2.8 °F 37% 30.44 in 10.0 mi Calm Calm - N/A   Clear
6:55 PM 24.6 °F - 3.7 °F 41% 30.44 in 10.0 mi Calm Calm - N/A   Clear
7:15 PM 24.1 °F - 3.2 °F 41% 30.44 in 10.0 mi Calm Calm - N/A   Clear
7:35 PM 22.8 °F - 4.5 °F 45% 30.43 in 10.0 mi Calm Calm - N/A   Clear
7:55 PM 21.6 °F - 5.4 °F 50% 30.43 in 10.0 mi Calm Calm - N/A   Clear
8:15 PM 20.8 °F - 6.8 °F 55% 30.42 in 10.0 mi Calm Calm - N/A   Clear
8:35 PM 19.9 °F - 7.7 °F 59% 30.42 in 10.0 mi Calm Calm - N/A   Clear
8:55 PM 18.9 °F - 8.2 °F 63% 30.41 in 10.0 mi Calm Calm - N/A   Clear
9:15 PM 18.3 °F - 8.2 °F 65% 30.41 in 10.0 mi Calm Calm - N/A   Clear
9:35 PM 18.1 °F - 9.3 °F 68% 30.40 in 10.0 mi Calm Calm - N/A   Clear
9:55 PM 17.2 °F - 10.2 °F 74% 30.40 in 10.0 mi Calm Calm - N/A   Clear
10:15 PM 16.3 °F - 9.7 °F 75% 30.39 in 10.0 mi Calm Calm - N/A   Clear
10:35 PM 15.8 °F - 9.5 °F 76% 30.38 in 10.0 mi Calm Calm - N/A   Clear
10:55 PM 15.4 °F - 9.7 °F 78% 30.38 in 10.0 mi Calm Calm - N/A   Clear
11:15 PM 14.4 °F - 10.2 °F 84% 30.36 in 10.0 mi Calm Calm - N/A   Clear
11:35 PM 14.7 °F - 11.1 °F 86% 30.35 in 10.0 mi Calm Calm - N/A   Clear
11:55 PM 14.9 °F - 11.1 °F 85% 30.34 in 10.0 mi Calm Calm - N/A   Clear